Weather History for Keokuk, IA

Change the Weather History Date:

Thursday, April 11, 2013

  Actual Average Record
Temperature  
Mean Temperature 44 °F -  
Max Temperature 48 °F 62 °F 83 °F (1981)
Min Temperature 39 °F 41 °F 24 °F (1989)
Degree Days  
Heating Degree Days 22    
Moisture  
Dew Point 35 °F    
Average Humidity 71    
Maximum Humidity 76    
Minimum Humidity 61    
Precipitation  
Precipitation 0.05 in - - ()
Sea Level Pressure  
Sea Level Pressure 29.66 in    
Wind  
Wind Speed 9 mph (WSW)    
Max Wind Speed 21 mph    
Max Gust Speed 25 mph    
Visibility 8 miles    
Events      
Averages and records for this station are not official NWS values.
T = Trace of Precipitation, MM = Missing Value Source: NWS Daily Summary

Daily Weather History Graph

Daily Weather History Graph

Search for Another Location

Airport:

Trip Planner

Search our weather history database for the weather conditions in past years. The results will help you decide how hot, cold, wet, or windy it might be!

Date:

Astronomy

Apr. 11, 2013 Rise Set
Actual Time 6:33 AM CDT 7:40 PM CDT
Civil Twilight 6:05 AM CDT 8:09 PM CDT
Nautical Twilight 5:31 AM CDT 8:42 PM CDT
Astronomical Twilight 4:56 AM CDT 9:17 PM CDT
Moon 7:04 AM CDT (4/11) 9:16 PM CDT (4/11)
Length of Visible Light 14h 03m
Length of Day
13h 07m
New Moon, 2% of the Moon is Illuminated
Apr 11
New Moon
Apr 18
First Quarter
Apr 25
Full
May 2
Last Quarter
May 9
New

Hourly Weather History & Observations

Time (CDT) Temp. Windchill Dew Point Humidity Pressure Visibility Wind Dir Wind Speed Gust Speed Precip Events Conditions
12:15 AM 46.4 °F 42.9 °F 39.2 °F 76% 29.66 in 4.0 mi NE 6.9 mph - N/A   Haze
12:35 AM 46.4 °F 41.9 °F 39.2 °F 76% 29.65 in 5.0 mi NE 9.2 mph - 0.01 in   Haze
12:55 AM 46.4 °F 45.2 °F 39.2 °F 76% 29.66 in 3.0 mi NE 3.5 mph - 0.01 in   Haze
1:15 AM 46.4 °F 45.2 °F 39.2 °F 76% 29.66 in 2.5 mi ENE 3.5 mph - N/A   Drizzle
1:35 AM 46.4 °F - 39.2 °F 76% 29.68 in 2.0 mi Calm Calm - 0.01 in   Drizzle
1:55 AM 46.4 °F - 39.2 °F 76% 29.66 in 1.8 mi Calm Calm - 0.02 in   Drizzle
2:15 AM 46.4 °F - 39.2 °F 76% 29.65 in 2.0 mi Calm Calm - N/A   Haze
2:35 AM 46.4 °F - 39.2 °F 76% 29.65 in 2.5 mi Calm Calm - N/A   Haze
2:55 AM 46.4 °F - 39.2 °F 76% 29.64 in 2.5 mi Calm Calm - N/A   Haze
3:15 AM 46.4 °F - 39.2 °F 76% 29.64 in 1.5 mi Calm Calm - 0.01 in   Haze
3:35 AM 46.4 °F 45.2 °F 39.2 °F 76% 29.63 in 1.8 mi West 3.5 mph - 0.01 in   Haze
3:55 AM 46.4 °F 43.5 °F 39.2 °F 76% 29.64 in 2.0 mi West 5.8 mph - 0.01 in   Haze
4:15 AM 46.4 °F 42.9 °F 39.2 °F 76% 29.65 in 3.0 mi West 6.9 mph - N/A   Haze
4:35 AM 46.4 °F 42.9 °F 39.2 °F 76% 29.63 in 4.0 mi West 6.9 mph - N/A   Haze
4:55 AM 46.4 °F 42.9 °F 39.2 °F 76% 29.63 in 7.0 mi WSW 6.9 mph - N/A   Overcast
5:15 AM 46.4 °F 43.5 °F 39.2 °F 76% 29.63 in 7.0 mi WSW 5.8 mph - N/A   Overcast
5:35 AM 46.4 °F 41.1 °F 39.2 °F 76% 29.64 in 10.0 mi WSW 11.5 mph - N/A   Overcast
5:55 AM 46.4 °F 40.7 °F 39.2 °F 76% 29.63 in 10.0 mi WSW 12.7 mph - N/A   Overcast
6:15 AM 46.4 °F 42.4 °F 39.2 °F 76% 29.65 in 10.0 mi SW 8.1 mph - N/A   Overcast
6:35 AM 46.4 °F 44.3 °F 39.2 °F 76% 29.65 in 7.0 mi WSW 4.6 mph - N/A   Overcast
6:55 AM 46.4 °F 42.4 °F 39.2 °F 76% 29.65 in 5.0 mi West 8.1 mph - N/A   Haze
7:15 AM 46.4 °F 41.9 °F 39.2 °F 76% 29.65 in 10.0 mi West 9.2 mph - N/A   Overcast
7:35 AM 46.4 °F 41.9 °F 39.2 °F 76% 29.66 in 10.0 mi WSW 9.2 mph - N/A   Overcast
7:55 AM 46.4 °F 41.9 °F 39.2 °F 76% 29.66 in 10.0 mi WSW 9.2 mph - N/A   Overcast
8:15 AM 46.4 °F 40.7 °F 39.2 °F 76% 29.65 in 10.0 mi West 12.7 mph - N/A   Overcast
8:35 AM 46.4 °F 40.4 °F 39.2 °F 76% 29.64 in 10.0 mi WSW 13.8 mph - N/A   Overcast
8:55 AM 46.4 °F 42.4 °F 39.2 °F 76% 29.65 in 10.0 mi WSW 8.1 mph - N/A   Mostly Cloudy
9:15 AM 46.4 °F 41.1 °F 39.2 °F 76% 29.65 in 10.0 mi WSW 11.5 mph - 0.01 in   Mostly Cloudy
9:35 AM 46.4 °F 41.5 °F 39.2 °F 76% 29.65 in 10.0 mi WSW 10.4 mph - 0.01 in   Overcast
9:55 AM 48.2 °F - 41.0 °F 76% 29.64 in 2.5 mi SW 12.7 mph - 0.01 in   Haze
10:15 AM 46.4 °F 40.7 °F 39.2 °F 76% 29.64 in 10.0 mi SW 12.7 mph - N/A   Overcast
10:35 AM 48.2 °F - 39.2 °F 71% 29.65 in 10.0 mi SW 12.7 mph - N/A   Overcast
10:55 AM 48.2 °F - 39.2 °F 71% 29.65 in 10.0 mi SW 12.7 mph - N/A   Overcast
11:15 AM 46.4 °F 40.1 °F 39.2 °F 76% 29.64 in 10.0 mi WSW 15.0 mph 18.4 mph N/A   Overcast
11:35 AM 46.4 °F 40.1 °F 37.4 °F 71% 29.65 in 10.0 mi SW 15.0 mph - N/A   Overcast
12:15 PM 46.4 °F 40.4 °F 37.4 °F 71% 29.64 in 10.0 mi SW 13.8 mph - N/A   Overcast
12:35 PM 46.4 °F 40.1 °F 37.4 °F 71% 29.64 in 10.0 mi WSW 15.0 mph 18.4 mph N/A   Overcast
12:55 PM 46.4 °F 39.5 °F 37.4 °F 71% 29.65 in 10.0 mi SW 17.3 mph 23.0 mph N/A   Overcast
1:15 PM 46.4 °F 40.1 °F 35.6 °F 66% 29.65 in 10.0 mi SW 15.0 mph 20.7 mph N/A   Overcast
1:35 PM 46.4 °F 39.8 °F 35.6 °F 66% 29.65 in 10.0 mi SW 16.1 mph 21.9 mph N/A   Overcast
1:55 PM 46.4 °F 40.4 °F 35.6 °F 66% 29.65 in 10.0 mi WSW 13.8 mph 17.3 mph N/A   Overcast
2:15 PM 42.8 °F 34.8 °F 35.6 °F 76% 29.65 in 4.0 mi WSW 17.3 mph - N/A   Haze
2:35 PM 44.6 °F 38.1 °F 35.6 °F 71% 29.65 in 10.0 mi WSW 13.8 mph 20.7 mph N/A   Overcast
2:55 PM 44.6 °F 37.4 °F 33.8 °F 66% 29.66 in 10.0 mi WSW 16.1 mph 23.0 mph N/A   Overcast
3:15 PM 42.8 °F 34.0 °F 33.8 °F 70% 29.67 in 10.0 mi SW 20.7 mph - N/A   Overcast
3:35 PM 44.6 °F 37.8 °F 32.0 °F 61% 29.66 in 10.0 mi WSW 15.0 mph 20.7 mph N/A   Overcast
3:55 PM 42.8 °F 35.4 °F 32.0 °F 66% 29.67 in 10.0 mi WSW 15.0 mph - N/A   Overcast
4:15 PM 44.6 °F 36.4 °F 33.8 °F 66% 29.67 in 10.0 mi WSW 20.7 mph 25.3 mph N/A   Overcast
4:35 PM 42.8 °F 35.4 °F 33.8 °F 70% 29.66 in 10.0 mi West 15.0 mph 21.9 mph N/A   Overcast
4:55 PM 42.8 °F 37.5 °F 32.0 °F 66% 29.65 in 10.0 mi WSW 9.2 mph - N/A   Overcast
5:15 PM 42.8 °F 35.4 °F 32.0 °F 66% 29.66 in 10.0 mi West 15.0 mph 18.4 mph N/A   Overcast
5:35 PM 42.8 °F 36.2 °F 30.2 °F 61% 29.66 in 10.0 mi WSW 12.7 mph - N/A   Overcast
5:55 PM 42.8 °F 36.2 °F 30.2 °F 61% 29.66 in 10.0 mi WSW 12.7 mph - N/A   Overcast
6:15 PM 42.8 °F 35.8 °F 30.2 °F 61% 29.66 in 10.0 mi WSW 13.8 mph 23.0 mph N/A   Overcast
6:35 PM 42.8 °F 35.4 °F 30.2 °F 61% 29.68 in 10.0 mi WSW 15.0 mph 24.2 mph N/A   Overcast
6:55 PM 41.0 °F 33.9 °F 30.2 °F 65% 29.69 in 10.0 mi WSW 12.7 mph 20.7 mph N/A   Overcast
7:15 PM 41.0 °F 34.3 °F 30.2 °F 65% 29.68 in 10.0 mi WSW 11.5 mph - N/A   Overcast
7:35 PM 41.0 °F 32.2 °F 28.4 °F 61% 29.68 in 10.0 mi West 18.4 mph 23.0 mph N/A   Overcast
7:55 PM 41.0 °F 32.8 °F 28.4 °F 61% 29.67 in 10.0 mi West 16.1 mph 20.7 mph N/A   Overcast
8:15 PM 39.2 °F 31.6 °F 28.4 °F 65% 29.66 in 10.0 mi WSW 12.7 mph - N/A   Overcast
8:35 PM 39.2 °F 33.0 °F 28.4 °F 65% 29.67 in 10.0 mi WSW 9.2 mph 13.8 mph N/A   Overcast
8:55 PM 39.2 °F 32.0 °F 28.4 °F 65% 29.68 in 10.0 mi WSW 11.5 mph - N/A   Overcast
9:15 PM 39.2 °F 33.0 °F 28.4 °F 65% 29.67 in 10.0 mi WSW 9.2 mph 15.0 mph N/A   Overcast
9:35 PM 39.2 °F 33.0 °F 28.4 °F 65% 29.68 in 10.0 mi WSW 9.2 mph - N/A   Overcast
9:55 PM 39.2 °F 33.6 °F 28.4 °F 65% 29.68 in 10.0 mi WSW 8.1 mph 16.1 mph N/A   Overcast
10:15 PM 39.2 °F 32.5 °F 28.4 °F 65% 29.67 in 10.0 mi SW 10.4 mph - N/A   Overcast
10:35 PM 39.2 °F 31.6 °F 28.4 °F 65% 29.68 in 10.0 mi WSW 12.7 mph 19.6 mph N/A   Overcast
10:55 PM 39.2 °F 32.0 °F 28.4 °F 65% 29.67 in 10.0 mi WSW 11.5 mph 16.1 mph N/A   Overcast
11:15 PM 39.2 °F 33.0 °F 28.4 °F 65% 29.68 in 10.0 mi WSW 9.2 mph - N/A   Overcast
11:35 PM 39.2 °F 32.5 °F 28.4 °F 65% 29.67 in 10.0 mi WSW 10.4 mph - N/A   Overcast
11:55 PM 39.2 °F 33.0 °F 28.4 °F 65% 29.67 in 10.0 mi WSW 9.2 mph 17.3 mph N/A   Overcast